#timestamp,LO_Frequency,Hit,StdDev 
1507294815.1,286047000.0,N
1507294816.0,286047000.0,N
1507294835.8,286047000.9,N
1507294855.6,286046998.7,N
1507294875.5,286047000.3,N
1507294895.3,286046999.2,N
1507294915.1,286046999.1,N
1507294935.9,286046997.2,N
1507294955.7,286046999.4,N
1507294975.5,286046994.9,N
1507294995.4,286046995.0,N
1507295015.2,286046997.3,N
1507295035.0,286046999.1,N
1507295035.9,286046999.1,N
1507295055.8,286046996.0,N
1507295075.6,286046992.2,N
1507295095.4,286046997.6,N
1507295115.3,286046999.0,N
1507295135.1,286046993.8,N
1507295136.0,286046993.8,N
1507295155.8,286046991.9,N
1507295175.7,286046992.2,N
1507295195.5,286046991.4,N
1507295215.3,286046990.6,N
1507295235.1,286046991.5,N
1507295255.9,286046990.4,N
1507295275.7,286046992.6,N
1507295295.5,286046997.5,N
1507295315.4,286046993.8,N
1507295335.2,286046993.6,N
1507295355.0,286046990.5,N
1507295355.9,286046990.5,N
1507295375.8,286046995.9,N
1507295395.6,286046997.2,N
1507295415.4,286046996.5,N
1507295435.3,286046998.0,N
1507295455.1,286046995.0,N
1507295456.0,286046995.0,N
1507295475.8,286046995.7,N
1507295495.7,286046998.5,N
1507295515.5,286046993.6,N
1507295535.3,286046992.7,N
1507295555.2,286046994.5,N
1507295575.9,286046995.7,N
1507295595.7,286046996.3,N
1507295615.6,286046999.4,N
1507295635.4,286047000.3,N
1507295655.2,286047002.4,N
1507295675.0,286047001.9,N
1507295676.0,286047001.9,N
1507295695.8,286047001.0,N
1507295715.6,286046996.7,N
1507295735.4,286047000.2,N
1507295755.3,286047001.4,N
1507295775.1,286047006.1,N
1507295795.8,286047004.2,N
1507295815.7,286047003.8,N
1507295835.5,286047005.1,N
1507295855.3,286047004.5,N
1507295875.2,286047006.9,N
1507295895.9,286047007.0,N
1507295915.7,286047007.2,N
1507295935.6,286047007.5,N
1507295955.4,286047007.1,N
1507295975.2,286047004.6,N
1507295995.1,286047004.8,N
1507295996.0,286047004.8,N
1507296015.8,286047005.2,N
1507296035.6,286047006.2,N
1507296055.4,286047006.5,N
1507296075.3,286047005.5,N
1507296095.1,286047005.3,N
1507296115.8,286047007.4,N
1507296135.7,286047003.8,N
1507296155.5,286047005.1,N
1507296175.3,286047004.3,N
1507296195.2,286047003.0,N
1507296215.9,286047008.4,Y
1507296235.7,286047004.0,P
1507296255.6,286046998.2,P
1507296275.4,286047000.5,N
1507296295.2,286046999.9,N
1507296315.1,286047001.7,N
1507296316.0,286047001.7,N
1507296335.8,286047000.2,N
1507296355.6,286046998.5,N
1507296375.5,286046997.1,N
1507296395.3,286046998.8,N
1507296415.1,286047001.2,N
1507296435.9,286046999.6,N
1507296455.7,286046998.9,N
1507296475.5,286047002.2,N
1507296495.3,286047000.7,N
1507296515.2,286046998.2,N
1507296535.0,286047000.1,N
1507296535.9,286047000.1,N
1507296555.7,286046998.4,N
1507296575.6,286046999.3,N
1507296595.4,286046999.4,N
1507296615.2,286046997.2,N
1507296635.1,286046993.7,Y
1507296636.0,286046993.7,P
1507296655.8,286046997.4,N
1507296675.6,286046993.9,N
1507296695.5,286046996.3,N
1507296715.3,286046995.5,N
1507296735.1,286047001.1,N
1507296755.9,286047002.5,N
1507296775.7,286047008.7,N
1507296795.5,286047009.0,N
1507296815.4,286047004.7,N
1507296835.2,286047007.5,N
1507296855.0,286047001.4,N
1507296855.9,286047001.4,N
1507296875.8,286047005.6,N
1507296895.6,286047003.2,N
1507296915.4,286047002.9,N
1507296935.2,286047000.5,N
1507296955.1,286047005.2,N
1507296956.0,286047005.2,N
1507296975.8,286047003.5,N
1507296995.6,286047006.8,N
1507297015.6,286047007.4,N
1507297035.4,286047003.0,N
1507297055.2,286047000.2,N
1507297075.1,286047002.3,N
1507297076.0,286047002.3,N
1507297095.8,286046996.7,N
1507297115.6,286047000.8,N
1507297135.5,286046999.2,N
1507297155.3,286046997.1,N
1507297175.1,286046996.7,N
1507297195.8,286046995.3,N
1507297215.7,286046996.3,N
1507297235.5,286046996.8,N
1507297255.3,286046997.7,N
1507297275.2,286046997.0,N
1507297295.9,286047001.0,N
1507297315.7,286047001.1,N
1507297335.6,286046999.7,N
1507297355.4,286047002.0,N
1507297375.2,286047003.3,N
1507297395.1,286046998.7,N
1507297396.0,286046998.7,N
1507297415.8,286046998.7,N
1507297435.6,286047000.8,N
1507297455.5,286047000.0,N
1507297475.3,286046997.4,N
1507297495.1,286046997.2,N
1507297515.9,286046999.0,N
1507297535.7,286046995.7,N
1507297555.5,286046995.6,N
1507297575.3,286046994.3,N
1507297595.2,286046992.7,Y
1507297615.0,286046991.7,P
1507297615.9,286046991.7,N
1507297635.8,286046992.4,N
1507297655.6,286046993.6,N
1507297675.4,286046995.7,N
1507297695.2,286046997.5,N
1507297715.1,286046998.5,N
1507297716.0,286046998.5,N
1507297735.8,286047004.0,N
1507297755.6,286047001.1,N
1507297775.5,286047000.5,N
1507297795.3,286047000.8,N
1507297815.1,286046999.3,N
1507297835.9,286046996.8,N
1507297855.7,286046996.9,N
1507297875.5,286046997.4,N
1507297895.4,286046999.2,N
1507297915.2,286046995.9,N
1507297935.0,286046995.2,N
1507297935.9,286046995.2,N
1507297955.8,286046993.3,N
1507297975.6,286046997.2,N
1507297995.4,286047001.0,N
1507298015.2,286046999.0,N
1507298035.1,286047001.0,N
1507298036.0,286047001.0,N
1507298055.8,286046998.6,N
1507298075.6,286046999.6,N
1507298095.5,286046996.5,N
1507298115.3,286047000.1,N
1507298135.1,286047002.0,N
1507298155.9,286047004.2,N
1507298175.7,286047001.8,N
1507298195.5,286047001.2,N
1507298215.4,286047002.1,N
1507298235.2,286047004.0,N
1507298255.0,286047002.7,N
1507298255.9,286047002.7,N
1507298275.8,286047001.3,N
1507298295.6,286047001.6,N
1507298315.4,286047000.0,N
1507298335.3,286046999.8,N
1507298355.1,286046998.8,N
1507298356.0,286046998.8,N
1507298375.8,286047001.1,N
1507298395.7,286047001.3,N
